[[{"header":{"parameterUnit":"m.s-1","parameterCategory":1,"la1":30.2991,"la2":30.254,"lo1":-89.0895,"lo2":-89.0444,"dy":0.0017,"dx":0.0017,"nx":28,"ny":28,"refTime":"2024-07-26T03:00:00:Z","depth":0,"parameterNumber":2,"parameterNumberName":"U-component_of_WINDS"},"data":[0,0,0,0,0,0,0,0,0,0,0,0,0,0,0,0,0,0,0,0,0,0,0,0,0,0,0,0,0,0,0,0,0,0,0,0,0,0,0,0,0,0,0,0,0,0,0,0,0,0,0,0,0,0,0,0,0,0,-1.5552,-1.5552,0,-1.5539,-1.5539,-1.5538,-1.5416,-1.5413,-1.541,-1.5407,-1.5399,-1.5402,-1.5404,0,0,0,0,0,0,0,0,0,0,0,0,0,-1.5476,-1.5478,-1.5552,-1.5552,-1.5552,-1.5539,-1.5539,-1.5538,-1.5417,-1.5413,-1.5409,-1.5406,-1.5398,-1.5401,-1.5405,0,0,0,0,0,0,0,0,0,0,0,0,0,-1.5491,-1.5479,-1.5552,-1.5489,-1.5484,-1.5539,-1.5539,-1.5538,-1.5418,-1.5413,-1.5408,-1.5404,-1.5397,-1.5401,-1.5405,-1.5521,0,0,-1.5417,-1.5419,0,0,0,0,0,0,0,0,-1.549,-1.5494,-1.5499,-1.5494,-1.5487,-1.5474,-1.5509,-1.5533,-1.5419,-1.5443,-1.5407,-1.5402,-1.5428,-1.5429,-1.5437,-1.5521,-1.552,-1.5417,-1.542,-1.5421,-1.5423,0,0,0,0,0,0,0,-1.5489,-1.5494,-1.5547,-1.5499,-1.5492,-1.5463,-1.546,-1.5513,-1.5462,-1.544,-1.5432,-1.5431,-1.5424,-1.5434,-1.5436,-1.552,-1.5417,-1.5421,-1.5423,-1.5425,-1.5697,-1.5702,0,0,0,0,0,0,-1.5496,-1.5494,-1.5547,-1.5546,-1.5477,-1.5468,-1.5465,-1.5483,-1.5461,-1.5453,-1.5435,-1.5426,-1.5429,-1.5432,-1.5435,-1.5569,-1.5421,-1.5425,-1.5427,-1.5692,-1.5698,-1.5704,0,0,0,0,0,0,-1.5495,-1.5502,-1.5548,-1.5518,-1.5521,-1.5474,-1.5496,-1.5486,-1.5494,-1.5457,-1.5447,-1.5454,-1.5426,-1.543,-1.55,-1.5567,-1.5427,-1.543,-1.5687,-1.5694,-1.5701,-1.5839,0,0,0,0,0,0,-1.5494,-1.5503,-1.5546,-1.5519,-1.5523,-1.5612,-1.55,-1.5489,-1.5501,-1.5488,-1.5472,-1.5465,-1.5422,-1.5495,-1.5504,-1.557,-1.5434,-1.568,-1.569,-1.5699,-1.5828,-1.585,-1.5869,0,0,0,0,0,-1.5491,-1.5586,-1.5548,-1.5556,-1.5576,-1.5616,-1.5619,-1.5567,-1.5507,-1.555,-1.5525,-1.5465,-1.5558,-1.5503,-1.5512,-1.5581,-1.5676,-1.5687,-1.5698,-1.5819,-1.5846,-1.5868,0,0,0,0,0,0,-1.5624,-1.5582,-1.5539,-1.5628,-1.5627,-1.5596,-1.5649,-1.5597,-1.5613,-1.5601,-1.5537,-1.5534,-1.5615,-1.5604,-1.5544,-1.5691,-1.5606,-1.562,-1.5695,-1.572,-1.574,-1.5742,-1.5437,0,0,0,0,0,-1.5663,-1.5698,-1.566,-1.5742,-1.5743,-1.5697,-1.5712,-1.5672,-1.5668,-1.5668,-1.5648,-1.5648,-1.5677,-1.5698,-1.5723,-1.5825,-1.582,-1.5877,-1.5897,-1.5914,-1.5927,-1.598,-1.6005,-1.574,-1.5739,-1.5739,0,0,-1.5746,-1.5727,-1.5753,-1.5769,-1.5762,-1.5801,-1.5697,-1.5743,-1.5771,-1.5675,-1.574,-1.5726,-1.5721,-1.5808,-1.5846,-1.5802,-1.5999,-1.5928,-1.5942,-1.5945,-1.5994,-1.602,-1.6042,-1.5747,-1.5746,-1.5744,0,0,-1.5916,-1.5905,-1.5971,-1.5967,-1.5958,-1.5925,-1.5942,-1.5918,-1.5904,-1.5968,-1.5896,-1.593,-1.5981,-1.5981,-1.5988,-1.6155,-1.6101,-1.6165,-1.6272,-1.6325,-1.6346,-1.6364,-1.6425,-1.6447,-1.6178,-1.6178,-1.6178,0,-1.602,-1.6074,-1.6013,-1.6063,-1.6072,-1.5984,-1.6052,-1.6051,-1.6052,-1.6061,-1.6011,-1.6073,-1.6064,-1.615,-1.619,-1.6198,-1.6216,-1.6168,-1.6347,-1.6365,-1.6381,-1.6438,-1.6461,-1.6186,-1.6185,-1.6184,-1.6184,0,-1.6203,-1.6241,-1.6297,-1.6297,-1.6312,-1.6371,-1.6321,-1.6343,-1.6301,-1.6275,-1.634,-1.6326,-1.6346,-1.6363,-1.6323,-1.6443,-1.6416,-1.6358,-1.6272,-1.6416,-1.6468,-1.6489,-1.6198,-1.6195,-1.6192,-1.619,0,0,-1.6459,-1.6422,-1.6444,-1.6442,-1.6425,-1.6455,-1.651,-1.6527,-1.6548,-1.6551,-1.6596,-1.6641,-1.6586,-1.6594,-1.6553,-1.6599,-1.6734,-1.6535,-1.6534,-1.6574,-1.6865,-1.691,-1.6936,-1.6696,-1.67,-1.6703,-1.6866,0,-1.6622,-1.6713,-1.6659,-1.6758,-1.6793,-1.6709,-1.6756,-1.6752,-1.6728,-1.6755,-1.6729,-1.6762,-1.6687,-1.6691,-1.6733,-1.6709,-1.6792,-1.6696,-1.6739,-1.6742,-1.6744,-1.6963,-1.7011,-1.7166,-1.6886,-1.6889,-1.6892,0,-1.6827,-1.6836,-1.6938,-1.6912,-1.6925,-1.6969,-1.698,-1.7007,-1.7,-1.6979,-1.6987,-1.6934,-1.6987,-1.69,-1.6973,-1.6909,-1.6924,-1.6914,-1.6919,-1.6922,-1.6827,-1.6974,-1.7213,-1.7237,-1.6924,-1.6921,-1.6919,0,-1.7004,-1.7042,-1.7107,-1.7109,-1.7081,-1.7113,-1.7104,-1.7091,-1.7105,-1.7115,-1.7123,-1.714,-1.715,-1.7165,-1.7119,-1.706,-1.7198,-1.7107,-1.7184,-1.7185,-1.7218,-1.7217,-1.7465,-1.7226,-1.7225,-1.7225,-1.7224,0,-1.7194,-1.726,-1.7186,-1.7227,-1.7299,-1.7236,-1.7309,-1.729,-1.728,-1.7316,-1.7244,-1.7281,-1.7216,-1.7246,-1.721,-1.7276,-1.7281,-1.7267,-1.7257,-1.7274,-1.7276,-1.7284,-1.7273,-1.7231,-1.723,-1.7228,-1.7227,0,-1.7405,-1.7358,-1.7424,-1.7391,-1.7384,-1.7438,-1.7411,-1.7448,-1.7417,-1.7464,-1.7472,-1.7426,-1.7457,-1.7412,-1.7439,-1.7414,-1.7506,-1.7479,-1.7508,-1.7501,-1.758,-1.7573,-1.7842,-1.7874,-1.7614,-1.7616,-1.7619,0,-1.753,-1.7578,-1.7549,-1.7567,-1.7561,-1.7591,-1.7604,-1.7543,-1.756,-1.7554,-1.7592,-1.7617,-1.7634,-1.7688,-1.7658,-1.7678,-1.7652,-1.7744,-1.7655,-1.767,-1.7654,-1.7653,-1.7657,-1.7764,-1.7767,-1.7769,-1.7771,0,-1.7757,-1.773,-1.775,-1.7762,-1.7779,-1.7786,-1.7788,-1.7807,-1.7743,-1.7766,-1.7795,-1.7808,-1.7834,-1.786,-1.7872,-1.7863,-1.7808,-1.7799,-1.7818,-1.7837,-1.7852,-1.7846,-1.7559,-1.7794,-1.7792,-1.779,-1.7789,-1.7788,-1.7929,-1.7968,-1.7953,-1.7977,-1.7972,-1.7975,-1.8007,-1.798,-1.8003,-1.8019,-1.7982,-1.8021,-1.8011,-1.8021,-1.8018,-1.8049,-1.8009,-1.8036,-1.8043,-1.8051,-1.8064,-1.7846,-1.8051,-1.805,-1.8049,-1.8049,-1.8048,0,-1.8153,-1.8138,-1.8161,-1.8165,-1.8184,-1.8127,-1.8125,-1.8146,-1.8181,-1.8176,-1.8192,-1.8227,-1.8251,-1.8222,-1.8241,-1.8271,-1.8246,-1.8278,-1.8276,-1.8275,-1.8098,-1.808,-1.8298,-1.8298,-1.8298,-1.8298,-1.8298,-1.8298,-1.8272,-1.8334,-1.8306,-1.8365,-1.835,-1.8386,-1.8391,-1.8393,-1.8389,-1.8429,-1.8448,-1.8428,-1.8414,-1.8431,-1.8451,-1.8442,-1.8453,-1.8494,-1.8477,-1.8312,-1.8288,-1.8265,-1.8247,-1.8497,-1.8497,-1.8651,-1.8653,-1.8654]},{"header":{"parameterUnit":"m.s-1","parameterCategory":1,"la1":30.2991,"la2":30.254,"lo1":-89.0895,"lo2":-89.0444,"dy":0.0017,"dx":0.0017,"nx":28,"ny":28,"refTime":"2024-07-26T03:00:00:Z","depth":0,"parameterNumber":3,"parameterNumberName":"V-component_of_WINDS"},"data":[0,0,0,0,0,0,0,0,0,0,0,0,0,0,0,0,0,0,0,0,0,0,0,0,0,0,0,0,0,0,0,0,0,0,0,0,0,0,0,0,0,0,0,0,0,0,0,0,0,0,0,0,0,0,0,0,0,0,-1.4897,-1.4897,0,-1.491,-1.491,-1.491,-1.4918,-1.4919,-1.4919,-1.4919,-1.493,-1.4931,-1.4931,0,0,0,0,0,0,0,0,0,0,0,0,0,-1.4877,-1.4877,-1.4897,-1.4897,-1.4897,-1.491,-1.491,-1.491,-1.4918,-1.4919,-1.4919,-1.4919,-1.493,-1.4931,-1.4931,0,0,0,0,0,0,0,0,0,0,0,0,0,-1.4887,-1.4877,-1.4897,-1.4903,-1.4904,-1.491,-1.491,-1.491,-1.4918,-1.4919,-1.4919,-1.4919,-1.493,-1.4931,-1.4931,-1.4932,0,0,-1.4932,-1.4932,0,0,0,0,0,0,0,0,-1.4886,-1.4888,-1.4902,-1.4903,-1.4903,-1.4913,-1.4907,-1.4918,-1.4918,-1.4913,-1.4919,-1.4919,-1.4924,-1.4925,-1.4927,-1.4932,-1.4933,-1.4932,-1.4932,-1.4933,-1.4933,0,0,0,0,0,0,0,-1.4886,-1.4887,-1.4902,-1.4902,-1.4903,-1.4904,-1.4906,-1.4909,-1.4918,-1.4913,-1.4914,-1.4915,-1.4925,-1.4927,-1.4928,-1.4933,-1.4932,-1.4933,-1.4933,-1.4933,-1.4938,-1.4938,0,0,0,0,0,0,-1.4884,-1.4887,-1.4902,-1.4902,-1.4895,-1.4904,-1.4906,-1.491,-1.4918,-1.4919,-1.4915,-1.4916,-1.4926,-1.4927,-1.4928,-1.4929,-1.4933,-1.4933,-1.4933,-1.4938,-1.4938,-1.4938,0,0,0,0,0,0,-1.4884,-1.4886,-1.4901,-1.4895,-1.4897,-1.4905,-1.4908,-1.491,-1.4912,-1.492,-1.4921,-1.4916,-1.4926,-1.4928,-1.4931,-1.4929,-1.4933,-1.4934,-1.4938,-1.4938,-1.4938,-1.4931,0,0,0,0,0,0,-1.4883,-1.4885,-1.4887,-1.4895,-1.4897,-1.4904,-1.4908,-1.491,-1.4913,-1.4914,-1.4921,-1.4922,-1.4927,-1.493,-1.4931,-1.493,-1.4934,-1.4938,-1.4938,-1.4938,-1.4931,-1.493,-1.493,0,0,0,0,0,-1.4883,-1.4884,-1.4887,-1.4888,-1.4899,-1.4904,-1.4905,-1.4911,-1.4913,-1.4914,-1.4918,-1.4922,-1.4929,-1.493,-1.4932,-1.4931,-1.4938,-1.4938,-1.4938,-1.4931,-1.493,-1.493,0,0,0,0,0,0,-1.4876,-1.4885,-1.4888,-1.4893,-1.4897,-1.4905,-1.4907,-1.491,-1.4914,-1.4915,-1.4921,-1.4922,-1.4924,-1.4928,-1.4929,-1.4931,-1.4934,-1.4934,-1.4929,-1.4928,-1.4927,-1.4926,-1.4934,0,0,0,0,0,-1.4875,-1.4879,-1.4887,-1.489,-1.4892,-1.4899,-1.4901,-1.4905,-1.491,-1.4912,-1.4917,-1.4921,-1.4924,-1.4926,-1.493,-1.4931,-1.4932,-1.4931,-1.493,-1.493,-1.493,-1.4929,-1.4928,-1.4937,-1.4937,-1.4937,0,0,-1.4873,-1.4878,-1.4881,-1.4889,-1.4893,-1.4896,-1.4901,-1.4904,-1.4906,-1.4913,-1.4916,-1.4919,-1.4924,-1.4926,-1.4927,-1.4929,-1.4927,-1.493,-1.4929,-1.4929,-1.4929,-1.4928,-1.4927,-1.4937,-1.4937,-1.4937,0,0,-1.4871,-1.4876,-1.4878,-1.4882,-1.4888,-1.4893,-1.4893,-1.49,-1.4903,-1.4906,-1.491,-1.4912,-1.4918,-1.4921,-1.4923,-1.4921,-1.4924,-1.4921,-1.4918,-1.4917,-1.4917,-1.4916,-1.4914,-1.4913,-1.4921,-1.4921,-1.4921,0,-1.4867,-1.4873,-1.4879,-1.4882,-1.4885,-1.4891,-1.4892,-1.4896,-1.4903,-1.4904,-1.4906,-1.4912,-1.4916,-1.4918,-1.4917,-1.4919,-1.4919,-1.4921,-1.4916,-1.4916,-1.4915,-1.4913,-1.4913,-1.4921,-1.4921,-1.4921,-1.4921,0,-1.4868,-1.4871,-1.4873,-1.4879,-1.4882,-1.4884,-1.489,-1.4892,-1.4895,-1.4898,-1.49,-1.4905,-1.4909,-1.491,-1.4913,-1.4912,-1.4912,-1.4915,-1.4918,-1.4914,-1.4912,-1.4912,-1.492,-1.492,-1.4921,-1.4921,0,0,-1.4863,-1.4871,-1.4872,-1.4874,-1.488,-1.4883,-1.4885,-1.4889,-1.489,-1.4894,-1.4895,-1.4899,-1.4901,-1.4903,-1.4907,-1.4906,-1.4902,-1.4909,-1.4909,-1.4907,-1.49,-1.4897,-1.4896,-1.4904,-1.4904,-1.4904,-1.4899,0,-1.4861,-1.4866,-1.487,-1.4873,-1.4875,-1.488,-1.4881,-1.4885,-1.4888,-1.489,-1.4893,-1.4895,-1.4898,-1.49,-1.49,-1.4903,-1.4901,-1.4903,-1.4904,-1.4904,-1.4903,-1.4895,-1.4893,-1.4888,-1.4898,-1.4898,-1.4898,0,-1.486,-1.4864,-1.4866,-1.4871,-1.4872,-1.4874,-1.4877,-1.4879,-1.4882,-1.4884,-1.4886,-1.489,-1.489,-1.4893,-1.4894,-1.4896,-1.4896,-1.4898,-1.4897,-1.4897,-1.4901,-1.4894,-1.4887,-1.4886,-1.4897,-1.4897,-1.4897,0,-1.4855,-1.486,-1.4862,-1.4864,-1.487,-1.487,-1.4873,-1.4876,-1.4878,-1.488,-1.4881,-1.4883,-1.4885,-1.4886,-1.4889,-1.4891,-1.4889,-1.4893,-1.489,-1.489,-1.4889,-1.4889,-1.4881,-1.489,-1.489,-1.489,-1.489,0,-1.4853,-1.4854,-1.486,-1.4861,-1.4862,-1.4867,-1.4867,-1.487,-1.4872,-1.4873,-1.4877,-1.4878,-1.4883,-1.4883,-1.4886,-1.4885,-1.4886,-1.4887,-1.4888,-1.4886,-1.4886,-1.4887,-1.4887,-1.489,-1.489,-1.489,-1.489,0,-1.4847,-1.4852,-1.4854,-1.4859,-1.486,-1.486,-1.4864,-1.4864,-1.4867,-1.4868,-1.4868,-1.4873,-1.4873,-1.4877,-1.4879,-1.488,-1.4879,-1.488,-1.4878,-1.4878,-1.4875,-1.4875,-1.4866,-1.4864,-1.4876,-1.4875,-1.4875,0,-1.4845,-1.4846,-1.4851,-1.4852,-1.4854,-1.4855,-1.4857,-1.4861,-1.4862,-1.4865,-1.4865,-1.4866,-1.4867,-1.4868,-1.4871,-1.4872,-1.4873,-1.487,-1.4873,-1.4871,-1.4872,-1.4871,-1.4871,-1.4869,-1.4869,-1.4869,-1.4869,0,-1.4841,-1.4843,-1.4845,-1.4847,-1.4848,-1.485,-1.4852,-1.4852,-1.4857,-1.4858,-1.4858,-1.4859,-1.4861,-1.4861,-1.4862,-1.4864,-1.4866,-1.4867,-1.4867,-1.4865,-1.4863,-1.4863,-1.4875,-1.4868,-1.4868,-1.4868,-1.4868,-1.4868,-1.4837,-1.4837,-1.484,-1.4842,-1.4843,-1.4845,-1.4845,-1.4848,-1.4849,-1.485,-1.4852,-1.4852,-1.4854,-1.4856,-1.4857,-1.4857,-1.4858,-1.4857,-1.4857,-1.4857,-1.4856,-1.4863,-1.4857,-1.4857,-1.4857,-1.4857,-1.4857,0,-1.4832,-1.4834,-1.4835,-1.4838,-1.4838,-1.4841,-1.4843,-1.4843,-1.4843,-1.4845,-1.4845,-1.4845,-1.4846,-1.4848,-1.4848,-1.4847,-1.4848,-1.4847,-1.4847,-1.4847,-1.4855,-1.4855,-1.4846,-1.4846,-1.4846,-1.4846,-1.4846,-1.4846,-1.483,-1.483,-1.4832,-1.4832,-1.4834,-1.4834,-1.4835,-1.4835,-1.4837,-1.4837,-1.4837,-1.4838,-1.4839,-1.484,-1.4839,-1.484,-1.4839,-1.4838,-1.4838,-1.4846,-1.4847,-1.4848,-1.4848,-1.4838,-1.4838,-1.4831,-1.4831,-1.4831]}]]